LA8QT Lodingen NO current weather conditions

sailwx.info

Wind from 335 at 3 knots

Air temperature 6.1° C
Dewpoint 4.4° C

Last reported at 2014-Nov-21 18:44 UTC.
Time now 2014-Nov-21 19:07 UTC

Location: N 68°28' E 016°04'.
View on Google Maps.

See reports from other nearby stations

  
Tides and Currents Weather Stations Pressure Air Temp Water Temp Dewpoint Dewpoint Depression Visibility Wind Speed Wind Dir Waves Ship Positions
date/time (UTC)wind fromknots sea level pressurealtimeterstation pressurevisibilityair tempwater tempwave heightnotes
2014-Nov-21 18:44 335 3 6.1
2014-Nov-21 18:29 263 6.1
2014-Nov-21 18:14 263 6.1
2014-Nov-21 17:59 263 6.1
2014-Nov-21 17:44 263 6.1
2014-Nov-21 17:29 263 6.1
2014-Nov-21 17:14 263 6.1
2014-Nov-21 16:59 263 5.6
2014-Nov-21 16:44 263 5.6
2014-Nov-21 16:29 263 1 6.1
2014-Nov-21 16:14 261 2 6.1
2014-Nov-21 15:59 261 6.1
2014-Nov-21 15:44 261 1 6.1
2014-Nov-21 15:29 262 3 6.1
2014-Nov-21 15:14 255 5.6
2014-Nov-21 14:59 255 5.6
2014-Nov-21 14:44 255 5.6
2014-Nov-21 14:29 255 5.6
2014-Nov-21 14:14 255 5.6
2014-Nov-21 13:59 255 2 5.6
2014-Nov-21 13:43 255 0 5.6
2014-Nov-21 13:28 255 3 5.6
2014-Nov-21 13:13 253 3 5.6
2014-Nov-21 12:58 253 1 5.6
2014-Nov-21 12:43 249 0 5.6
2014-Nov-21 12:28 250 5.6
2014-Nov-21 12:13 249 5.6
2014-Nov-21 11:58 249 0 6.1
2014-Nov-21 11:43 266 1 6.1
2014-Nov-21 11:28 272 1 5.6
2014-Nov-21 11:13 272 0 5.6
2014-Nov-21 10:58 272 5.6
2014-Nov-21 10:43 272 6.1
2014-Nov-21 10:28 271 6.1
2014-Nov-21 10:13 271 2 6.1
2014-Nov-21 09:58 272 3 6.1
2014-Nov-21 09:43 272 1 6.7
2014-Nov-21 09:28 272 2 6.7
2014-Nov-21 09:13 272 2 6.7
2014-Nov-21 08:58 261 6.7
2014-Nov-21 08:43 261 1 6.7
2014-Nov-21 08:28 262 0 6.7
2014-Nov-21 08:13 262 6.7
2014-Nov-21 07:58 261 6.7
2014-Nov-21 07:43 261 7.2
2014-Nov-21 07:28 261 0 6.7
2014-Nov-21 07:13 299 6.7
2014-Nov-21 06:58 299 1 6.7
2014-Nov-21 06:43 237 6.7
2014-Nov-21 06:28 237 6.7
2014-Nov-21 06:13 237 1 6.7
2014-Nov-21 05:58 233 6 6.1
2014-Nov-21 05:43 232 6 6.1
2014-Nov-21 05:28 247 7 6.1
2014-Nov-21 05:13 236 6 6.1
2014-Nov-21 04:58 216 7 6.1
2014-Nov-21 04:43 241 7 6.1
2014-Nov-21 04:28 243 8 6.1
2014-Nov-21 04:13 232 9 6.1
2014-Nov-21 03:58 255 8 6.1
2014-Nov-21 03:43 238 8 6.1
2014-Nov-21 03:28 226 9 6.1
2014-Nov-21 03:13 259 6 6.1
2014-Nov-21 02:58 249 6 5.6
2014-Nov-21 02:43 230 6 5.6
2014-Nov-21 02:28 238 6 5.6
2014-Nov-21 02:13 242 9 5.6
2014-Nov-21 01:58 237 7 5.6
2014-Nov-21 01:43 229 10 5.6
2014-Nov-21 01:28 240 6 5.6
2014-Nov-21 01:13 215 7 5.6
2014-Nov-21 00:58 224 6 5.6
2014-Nov-21 00:43 205 7 5.0
2014-Nov-21 00:27 209 5 5.0
2014-Nov-21 00:12 224 1 5.0
2014-Nov-20 23:57 221 5.0
2014-Nov-20 23:42 219 1 5.0
2014-Nov-20 23:27 231 1 4.4
2014-Nov-20 23:12 216 4 4.4
2014-Nov-20 22:57 210 2 4.4
2014-Nov-20 22:42 212 3 4.4
2014-Nov-20 22:27 220 4 4.4
2014-Nov-20 22:12 236 2 4.4
2014-Nov-20 21:57 234 1 4.4
2014-Nov-20 21:42 224 4 4.4
2014-Nov-20 21:27 240 3 4.4
2014-Nov-20 21:12 243 2 4.4
2014-Nov-20 20:57 238 1 4.4
2014-Nov-20 20:42 224 6 4.4
2014-Nov-20 20:27 213 8 4.4
2014-Nov-20 20:12 199 10 4.4
2014-Nov-20 19:57 203 11 4.4
2014-Nov-20 19:42 205 11 4.4
2014-Nov-20 19:27 207 11 4.4
2014-Nov-20 19:12 207 13 4.4
2014-Nov-20 18:57 203 10 4.4
2014-Nov-20 18:42 202 11 4.4
2014-Nov-20 18:27 205 7 4.4
2014-Nov-20 18:12 232 3 4.4
2014-Nov-20 17:57 202 7 4.4
2014-Nov-20 17:42 206 9 3.9
2014-Nov-20 17:27 210 9 3.9
2014-Nov-20 17:12 205 6 4.4
2014-Nov-20 16:57 205 9 3.9
2014-Nov-20 16:42 209 6 3.9
2014-Nov-20 16:27 215 6 3.9
2014-Nov-20 16:12 212 6 3.9
2014-Nov-20 15:57 201 8 3.9
2014-Nov-20 15:42 204 8 3.9
2014-Nov-20 15:27 201 11 3.9
2014-Nov-20 15:12 205 9 3.3
2014-Nov-20 14:57 239 3 3.9
2014-Nov-20 14:42 239 3 3.3
2014-Nov-20 14:27 241 2 3.3
2014-Nov-20 14:12 240 1 3.3
2014-Nov-20 13:57 240 3 3.3
2014-Nov-20 13:42 240 2 3.3
2014-Nov-20 13:27 236 4 3.3
2014-Nov-20 13:12 221 3 3.3
2014-Nov-20 12:57 220 3 3.3
2014-Nov-20 12:42 220 2 3.3
2014-Nov-20 12:27 220 2 3.3
2014-Nov-20 12:12 220 2 3.3
2014-Nov-20 11:57 220 3 3.3
2014-Nov-20 11:42 220 2 3.3
2014-Nov-20 11:27 220 1 3.3
2014-Nov-20 11:12 220 0 3.3
2014-Nov-20 10:42 220 3 3.3
2014-Nov-20 10:26 215 2 3.3
2014-Nov-20 10:11 215 2 3.3
2014-Nov-20 09:56 215 2 3.3
2014-Nov-20 09:41 215 2 2.8
2014-Nov-20 09:26 211 2.8
2014-Nov-20 09:11 211 0 3.3
2014-Nov-20 08:56 211 1 3.3
2014-Nov-20 08:41 211 1 2.8
2014-Nov-20 08:26 211 2 3.3
2014-Nov-20 08:11 211 2 2.8
2014-Nov-20 07:56 211 2 2.8
2014-Nov-20 07:41 211 1 3.3
2014-Nov-20 07:26 211 2 3.3
2014-Nov-20 07:11 211 2 3.3
2014-Nov-20 06:56 207 6 3.3
2014-Nov-20 06:41 201 2 3.3
2014-Nov-20 06:26 199 6 3.3
2014-Nov-20 06:11 199 4 3.3
2014-Nov-20 05:56 199 0 3.3
2014-Nov-20 05:41 199 4 3.3
2014-Nov-20 05:26 199 5 3.3
2014-Nov-20 05:11 211 5 3.3
2014-Nov-20 04:56 220 2 3.3
2014-Nov-20 04:41 220 1 3.3
2014-Nov-20 04:26 220 4 3.3
2014-Nov-20 04:11 222 5 3.3
2014-Nov-20 03:56 246 3 3.3
2014-Nov-20 03:41 247 2 3.3
2014-Nov-20 03:26 247 3.3
2014-Nov-20 03:11 247 3.3
2014-Nov-20 02:56 247 0 3.3
2014-Nov-20 02:41 247 2 3.3
2014-Nov-20 02:26 247 3 3.3
2014-Nov-20 02:11 248 3 3.3
2014-Nov-20 01:56 248 3.9
2014-Nov-20 01:41 248 3.9
2014-Nov-20 01:26 249 0 3.9
2014-Nov-20 01:11 249 3.9
2014-Nov-20 00:56 249 3.9
2014-Nov-20 00:41 249 3.9
2014-Nov-20 00:26 249 3.9
2014-Nov-20 00:11 249 3.9
2014-Nov-19 23:56 249 3.9
2014-Nov-19 23:41 249 3.9
2014-Nov-19 23:26 249 3.9
2014-Nov-19 23:11 249 3.9
2014-Nov-19 22:56 249 3.9
2014-Nov-19 22:41 249 3.9
2014-Nov-19 22:26 249 4.4
2014-Nov-19 22:11 249 3.9
2014-Nov-19 21:56 249 4.4
2014-Nov-19 21:41 249 4.4
2014-Nov-19 21:26 249 4.4
2014-Nov-19 21:11 249 4.4
2014-Nov-19 20:56 249 4.4
2014-Nov-19 20:41 249 0 4.4
2014-Nov-19 20:26 249 0 4.4
2014-Nov-19 20:11 249 0 4.4
2014-Nov-19 19:56 249 0 4.4
2014-Nov-19 19:41 249 4.4
2014-Nov-19 19:25 249 2 4.4
2014-Nov-19 19:10 245 0 4.4